• In Deutschland
  • Länderverzeichnis
  • Für 7 Tage
  • Wassertemperatur
  • Satellitenkarten
  • Wetterkarte
  • Widgets
  • user-avatar
    Anmelden

    Stündliche Wetter Ansbach

    Heute, 21 August, Dienstag

    Zeit Temperatur Niederschläge Wind Luftdruck Luftfeuchtigkeit
    00:00 +20°C° 0 mm 1 m/S 726 mmHg 86%
    01:00 +19°C° 0 mm 1 m/S 726 mmHg 88%
    02:00 +19°C° 0 mm 1 m/S 726 mmHg 89%
    03:00 +18°C° 0 mm 1 m/S 726 mmHg 90%
    04:00 +18°C° 0 mm 1 m/S 726 mmHg 91%
    05:00 +19°C° 0 mm 1 m/S 726 mmHg 88%
    06:00 +19°C° 0 mm 1 m/S 727 mmHg 85%
    07:00 +20°C° 0 mm 1 m/S 727 mmHg 82%
    08:00 +22°C° 0 mm 1 m/S 727 mmHg 74%
    09:00 +24°C° 0 mm 1 m/S 727 mmHg 67%
    10:00 +26°C° 0 mm 1 m/S 728 mmHg 59%
    11:00 +26°C° 0 mm 1 m/S 727 mmHg 55%
    12:00 +27°C° 0 mm 2 m/S 727 mmHg 52%
    13:00 +28°C° 0 mm 2 m/S 727 mmHg 49%
    14:00 +28°C° 0 mm 2 m/S 727 mmHg 49%
    15:00 +28°C° 0 mm 2 m/S 726 mmHg 48%
    16:00 +28°C° 0 mm 2 m/S 726 mmHg 48%
    17:00 +27°C° 0 mm 2 m/S 726 mmHg 54%
    18:00 +25°C° 0 mm 2 m/S 726 mmHg 60%
    19:00 +24°C° 0 mm 2 m/S 725 mmHg 66%
    20:00 +21°C° 0 mm 2 m/S 726 mmHg 69%
    21:00 +20°C° 0 mm 2 m/S 726 mmHg 73%
    22:00 +19°C° 0 mm 2 m/S 726 mmHg 76%
    23:00 +19°C° 0 mm 2 m/S 726 mmHg 79%

    Morgen, 22 August, Mittwoch

    Zeit Temperatur Niederschläge Wind Luftdruck Luftfeuchtigkeit
    00:00 +18°C° 0 mm 2 m/S 726 mmHg 82%
    01:00 +18°C° 0 mm 2 m/S 726 mmHg 85%
    02:00 +18°C° 0 mm 2 m/S 725 mmHg 86%
    03:00 +18°C° 0 mm 1 m/S 725 mmHg 88%
    04:00 +18°C° 0 mm 1 m/S 725 mmHg 89%
    05:00 +19°C° 0 mm 1 m/S 725 mmHg 87%
    06:00 +19°C° 0 mm 1 m/S 725 mmHg 84%
    07:00 +20°C° 0 mm 1 m/S 726 mmHg 82%
    08:00 +22°C° 0 mm 1 m/S 726 mmHg 75%
    09:00 +24°C° 0 mm 1 m/S 726 mmHg 68%
    10:00 +26°C° 0 mm 2 m/S 726 mmHg 61%
    11:00 +27°C° 0 mm 2 m/S 726 mmHg 56%
    12:00 +29°C° 0 mm 1 m/S 725 mmHg 52%
    13:00 +30°C° 0 mm 1 m/S 725 mmHg 48%
    14:00 +30°C° 0 mm 1 m/S 725 mmHg 47%
    15:00 +30°C° 0 mm 1 m/S 725 mmHg 46%
    16:00 +28°C° 0 mm 0 m/S 724 mmHg 45%
    17:00 +29°C° 0 mm 1 m/S 724 mmHg 51%
    18:00 +27°C° 0 mm 1 m/S 724 mmHg 56%
    19:00 +26°C° 0 mm 1 m/S 724 mmHg 62%
    20:00 +24°C° 0,1 mm 1 m/S 724 mmHg 65%
    21:00 +23°C° 0,1 mm 1 m/S 724 mmHg 68%
    22:00 +22°C° 0,1 mm 1 m/S 724 mmHg 72%
    23:00 +22°C° 0 mm 1 m/S 724 mmHg 74%

    übermorgen, 23 August, Donnerstag

    Zeit Temperatur Niederschläge Wind Luftdruck Luftfeuchtigkeit
    00:00 +19°C° 0 mm 0 m/S 724 mmHg 76%
    01:00 +19°C° 0 mm 0 m/S 724 mmHg 78%
    02:00 +18°C° 0 mm 0 m/S 724 mmHg 80%
    03:00 +18°C° 0 mm 0 m/S 724 mmHg 82%
    04:00 +18°C° 0 mm 0 m/S 724 mmHg 83%
    05:00 +18°C° 0,1 mm 0 m/S 724 mmHg 82%
    06:00 +21°C° 0,1 mm 1 m/S 724 mmHg 80%
    07:00 +22°C° 0,1 mm 1 m/S 724 mmHg 79%
    08:00 +23°C° 0,2 mm 1 m/S 724 mmHg 73%
    09:00 +25°C° 0,2 mm 1 m/S 724 mmHg 67%
    10:00 +27°C° 0,2 mm 2 m/S 724 mmHg 61%
    11:00 +28°C° 0,3 mm 2 m/S 724 mmHg 56%
    12:00 +29°C° 0,3 mm 2 m/S 724 mmHg 51%
    13:00 +29°C° 0,3 mm 2 m/S 723 mmHg 46%
    14:00 +30°C° 0 mm 2 m/S 723 mmHg 44%
    15:00 +30°C° 0 mm 2 m/S 723 mmHg 43%
    16:00 +30°C° 0 mm 2 m/S 723 mmHg 42%
    17:00 +28°C° 0 mm 2 m/S 722 mmHg 48%
    18:00 +26°C° 0 mm 2 m/S 722 mmHg 54%
    19:00 +25°C° 0 mm 1 m/S 722 mmHg 59%
    20:00 +24°C° 0,1 mm 1 m/S 722 mmHg 63%
    21:00 +23°C° 0,1 mm 2 m/S 722 mmHg 66%
    22:00 +21°C° 0,1 mm 2 m/S 722 mmHg 69%
    23:00 +20°C° 0 mm 2 m/S 722 mmHg 73%

    24 August, Freitag

    Zeit Temperatur Niederschläge Wind Luftdruck Luftfeuchtigkeit
    00:00 +20°C° 0 mm 2 m/S 722 mmHg 76%
    01:00 +19°C° 0 mm 2 m/S 721 mmHg 80%
    02:00 +19°C° 0 mm 2 m/S 721 mmHg 83%
    03:00 +18°C° 0 mm 2 m/S 721 mmHg 86%
    04:00 +18°C° 0 mm 2 m/S 721 mmHg 89%
    05:00 +18°C° 0 mm 3 m/S 721 mmHg 88%
    06:00 +18°C° 0 mm 3 m/S 722 mmHg 88%
    07:00 +18°C° 0 mm 3 m/S 722 mmHg 87%
    08:00 +19°C° 0,2 mm 4 m/S 722 mmHg 82%
    09:00 +20°C° 0,2 mm 4 m/S 722 mmHg 78%
    10:00 +20°C° 0,2 mm 5 m/S 722 mmHg 74%
    11:00 +21°C° 0,1 mm 5 m/S 722 mmHg 65%
    12:00 +22°C° 0,1 mm 5 m/S 722 mmHg 55%
    13:00 +23°C° 0,1 mm 5 m/S 722 mmHg 46%
    14:00 +22°C° 0 mm 5 m/S 722 mmHg 46%
    15:00 +22°C° 0 mm 5 m/S 722 mmHg 46%
    16:00 +22°C° 0 mm 5 m/S 722 mmHg 46%
    17:00 +20°C° 0 mm 5 m/S 723 mmHg 50%
    18:00 +19°C° 0 mm 4 m/S 723 mmHg 54%
    19:00 +17°C° 0 mm 3 m/S 723 mmHg 58%
    20:00 +16°C° 0 mm 3 m/S 723 mmHg 60%
    21:00 +15°C° 0 mm 2 m/S 723 mmHg 63%
    22:00 +14°C° 0 mm 2 m/S 724 mmHg 66%
    23:00 +13°C° 0 mm 2 m/S 724 mmHg 68%

    25 August, Samstag

    Zeit Temperatur Niederschläge Wind Luftdruck Luftfeuchtigkeit
    00:00 +12°C° 0 mm 1 m/S 724 mmHg 70%
    01:00 +11°C° 0 mm 1 m/S 723 mmHg 72%
    02:00 +11°C° 0 mm 1 m/S 723 mmHg 73%
    03:00 +11°C° 0 mm 1 m/S 723 mmHg 73%
    04:00 +10°C° 0 mm 1 m/S 723 mmHg 74%
    05:00 +11°C° 0 mm 1 m/S 723 mmHg 72%
    06:00 +12°C° 0 mm 1 m/S 723 mmHg 70%
    07:00 +12°C° 0 mm 1 m/S 723 mmHg 69%
    08:00 +13°C° 0 mm 1 m/S 723 mmHg 64%
    09:00 +15°C° 0 mm 2 m/S 723 mmHg 59%
    10:00 +16°C° 0 mm 2 m/S 723 mmHg 54%
    11:00 +16°C° 0 mm 2 m/S 722 mmHg 53%
    12:00 +17°C° 0 mm 2 m/S 722 mmHg 52%
    13:00 +17°C° 0 mm 3 m/S 721 mmHg 50%
    14:00 +16°C° 0,4 mm 2 m/S 721 mmHg 57%
    15:00 +15°C° 0,4 mm 2 m/S 721 mmHg 64%
    16:00 +14°C° 0,4 mm 2 m/S 720 mmHg 72%
    17:00 +13°C° 0,2 mm 1 m/S 720 mmHg 75%
    18:00 +13°C° 0,2 mm 1 m/S 720 mmHg 79%
    19:00 +12°C° 0,2 mm 1 m/S 720 mmHg 83%
    20:00 +12°C° 0,1 mm 1 m/S 719 mmHg 85%
    21:00 +11°C° 0,1 mm 1 m/S 719 mmHg 87%
    22:00 +11°C° 0,1 mm 1 m/S 719 mmHg 89%
    23:00 +11°C° 0,4 mm 1 m/S 719 mmHg 91%

    26 August, Sonntag

    Zeit Temperatur Niederschläge Wind Luftdruck Luftfeuchtigkeit
    00:00 +11°C° 0,4 mm 1 m/S 718 mmHg 92%
    01:00 +10°C° 0,4 mm 1 m/S 718 mmHg 94%
    02:00 +10°C° 0,1 mm 1 m/S 718 mmHg 94%
    03:00 +10°C° 0,1 mm 1 m/S 717 mmHg 94%
    04:00 +10°C° 0,1 mm 1 m/S 717 mmHg 95%
    05:00 +10°C° 0,4 mm 2 m/S 717 mmHg 94%
    06:00 +10°C° 0,4 mm 2 m/S 716 mmHg 94%
    07:00 +10°C° 0,4 mm 2 m/S 716 mmHg 94%
    08:00 +10°C° 1 mm 2 m/S 716 mmHg 92%
    09:00 +12°C° 1 mm 2 m/S 716 mmHg 91%
    10:00 +12°C° 1 mm 2 m/S 716 mmHg 90%
    11:00 +12°C° 0,7 mm 2 m/S 717 mmHg 89%
    12:00 +13°C° 0,7 mm 2 m/S 717 mmHg 89%
    13:00 +13°C° 0,7 mm 2 m/S 717 mmHg 88%
    14:00 +13°C° 0,2 mm 2 m/S 718 mmHg 87%
    15:00 +12°C° 0,2 mm 3 m/S 719 mmHg 85%
    16:00 +13°C° 0,2 mm 3 m/S 719 mmHg 83%
    17:00 +12°C° 0,2 mm 3 m/S 720 mmHg 85%
    18:00 +11°C° 0,2 mm 3 m/S 720 mmHg 88%
    19:00 +11°C° 0,2 mm 3 m/S 721 mmHg 90%
    20:00 +11°C° 0,1 mm 3 m/S 722 mmHg 91%
    21:00 +10°C° 0,1 mm 3 m/S 722 mmHg 92%
    22:00 +10°C° 0,1 mm 3 m/S 723 mmHg 92%
    23:00 +9°C° 0 mm 2 m/S 724 mmHg 93%
    Mehr zeigen